Regional Weather Roundup
Issued by NWS

Home | Current Version | Previous Version | Text Only | Print | Product List | Glossary Off
Versions: 1 2 3 4 5 6 7 8 9 10 11 12 13 14 15 16 17 18 19 20 21 22 23 24 25 26 27 28 29 30 31 32 33 34 35 36 37 38 39 40 41 42 43 44 45 46 47 48 49 50

971
ASUS44 KJAN 180503
RWRMS

MISSISSIPPI HOURLY WEATHER ROUNDUP
NATIONAL WEATHER SERVICE JACKSON MS
1200 AM CDT FRI APR 18 2014

NOTE: "FAIR: INDICATES FEW OR NO CLOUDS BELOW 12,000 FEET WITH NO
SIGNIFICANT WEATHER AND/OR OBSTRUCTIONS TO VISIBILITY.

MSZ001>002-007>008-010>013-018>021-025>028-034>036-180600-
NORTHWEST MISSISSIPPI

CITY           SKY/WX    TMP DP  RH WIND       PRES   REMARKS
CLARKSDALE       N/A     57  50  77 CALM      30.21F
CLEVELAND      MOCLDY    58  53  83 E6        30.20R THUNDER
GREENWOOD      CLOUDY    56  50  80 CALM      30.22R
GREENVILLE     CLOUDY    59  52  77 SE5       30.20R
GRENADA        FAIR      55  52  88 CALM      30.23R
OLIVE BRANCH   PTCLDY    55  45  67 CALM      30.22S
OXFORD         CLOUDY    54  48  82 CALM      30.24R
TUNICA         MOCLDY    55  48  76 CALM      30.21F
$$

MSZ003>006-009-014>017-022>024-029>033-037>039-180600-
NORTHEAST MISSISSIPPI

CITY           SKY/WX    TMP DP  RH WIND       PRES   REMARKS
BELMONT        CLOUDY    58  49  72 CALM      30.25R
COLUMBUS AFB   CLOUDY    58  53  84 CALM      30.25R
CORINTH        CLOUDY    59  46  63 CALM      30.23S
GOLDN TRIANGLE CLOUDY    57  50  77 NE6       30.27R
STARKVILLE     CLOUDY    55  54  94 CALM      30.23R
TUPELO         CLOUDY    57  52  83 CALM      30.23R
$$

MSZ040-058-180600-
CENTRAL MISSISSIPPI

CITY           SKY/WX    TMP DP  RH WIND       PRES   REMARKS
JACKSON INTL   CLOUDY    60  52  74 E6        30.18S
JACKSON HAWKNS CLOUDY    62  51  67 VRB3      30.19S
MERIDIAN KEY   CLOUDY    61  51  70 E6        30.21S
MERIDIAN NAS   CLOUDY    59  51  75 E7        30.22S
RAYMOND        CLOUDY    57  54  88 CALM      30.19S
VICKSBURG      MOCLDY    59  54  83 NE5       30.19S
$$

MSZ059>079-180600-
SOUTH MISSISSIPPI

CITY           SKY/WX    TMP DP  RH WIND       PRES   REMARKS
BROOKHAVEN     FAIR      57  54  88 NE3       30.18S
COLUMBIA       LGT RAIN  59  55  88 MISG      30.15F
HATTIESBURG    CLOUDY    60  54  80 E5        30.18F
MCCOMB         CLOUDY    60  53  77 E5        30.15F
NATCHEZ        CLOUDY    57  54  88 NE3       30.17R
PINE BELT      CLOUDY    59  52  77 NE5       30.19S
$$

MSZ080>082-180600-
COASTAL MISSISSIPPI

CITY           SKY/WX    TMP DP  RH WIND       PRES   REMARKS
BILOXI         CLOUDY    62  60  95 NE9       30.16R
PASCAGOULA     LGT RAIN  61  59  93 E13G21    30.13F
GULFPORT       CLOUDY    64  58  80 NE9       30.16R
$$



USA.gov is the U.S. government's official web portal to all federal, state and local government web resources and services.